Zurück zum Katalog

DELTA 1 DEB

AktivSSO
NORAD 21281·DEBRIS·🇺🇸 United States

Gestartet Jun 12, 1975 von Vandenberg Space Force Base

Loading…

Nächste Überflüge (nächste 24 Stunden)

TLE

AktuellSource: Space-Track

Epoche: Sep 14, 2026, 07:16 UTC

1 21281U 75052S   26257.30297800  .00000033  00000-0  15089-3 0  9996
2 21281 100.0007 186.8384 0057780  82.6970  69.3209 13.34342969721611

Verfolge DELTA 1 DEB in Echtzeit mit AllMySat

Download on the App Store